Location: Lango�lan
(48.1202°N, 3.2340°W)
Time: 20:11:05
(UTC+00:00)

SL-8 Rocket - Pass Details

Date: 23 October 2019
Orbit: 957 x 990 km, 82.9° (Epoch: 20 November)

Event Time Altitude Azimuth Distance (km) Brightness Sun altitude
Rises 05:05:31 0° 180° (S) 3,642 7.0 -17.0°
Reaches altitude 10° 05:08:01 10° 178° (S) 2,696 6.3 -16.6°
Maximum altitude 05:14:08 72° 95° (E) 1,009 4.2 -15.6°
Drops below altitude 10° 05:20:17 10° 13° (NNE) 2,702 6.5 -14.6°
Sets 05:22:48 0° 11° (N) 3,651 7.1 -14.1°
